Wind_Speed
25 22 20 18 17 17 16 16 18 19 20 20 19 19 20 21 21 22 22 22 23 23 23 24 24 25 24 23 23 23 22 21 21 21 21 21 21 22 22 23 24 25 27
26 25 22 20 19 16 15 14 15 18 21 21 21 23 23 23 23 23 24 25 25 26 27 28 28 28 27 26 25 25 24 24 23 24 25 25 25 26 26 28 29 30 31
27 25 24 22 19 17 16 16 16 18 21 22 23 24 25 26 25 24 25 26 27 28 29 29 28 28 28 27 27 28 25 25 25 25 27 28 29 30 31 32 34 35 36
28 27 25 24 21 19 19 19 19 19 21 23 25 26 26 26 27 28 27 28 29 30 30 30 30 29 29 29 28 27 27 26 26 28 29 30 32 33 35 36 38 39 41
29 27 27 25 23 23 23 23 23 24 25 27 29 29 29 30 31 30 30 29 29 29 31 32 32 30 29 29 29 28 28 28 29 30 31 32 34 36 38 39 41 42 43
30 29 28 27 27 26 26 25 26 26 28 30 31 32 32 33 33 33 32 31 30 30 32 33 31 30 30 30 31 31 30 30 31 32 33 34 36 38 40 41 43 45 46
32 31 31 31 31 30 30 29 29 30 31 34 34 34 36 37 36 36 34 33 32 32 34 33 32 32 32 32 33 33 33 33 34 35 36 37 38 40 42 44 46 47 49
33 33 32 32 32 31 32 32 32 34 35 37 38 39 40 40 39 39 38 35 35 35 33 34 34 34 34 34 35 35 36 36 37 38 38 40 41 43 45 47 49 50 52
35 35 35 35 34 35 36 37 37 38 40 41 41 41 41 40 40 40 39 37 36 35 35 36 36 36 36 37 38 38 38 39 40 41 42 44 46 47 48 49 52 53 54
39 39 39 39 39 40 41 42 42 42 43 44 44 45 45 44 44 42 40 39 38 37 38 38 38 38 39 40 41 41 42 43 44 46 46 48 49 51 52 53 55 56 58
41 41 41 42 43 43 44 45 45 46 46 45 45 46 46 45 44 42 41 41 41 40 41 41 41 42 43 43 44 46 47 48 48 49 50 52 54 55 56 57 57 58 58
43 43 44 44 44 44 45 46 47 48 48 48 47 46 45 45 45 45 44 44 43 43 44 45 46 48 48 48 48 50 51 52 52 53 54 56 57 57 57 57 57 56 57
44 44 45 45 45 45 46 46 47 47 48 47 46 47 47 46 46 46 45 45 46 46 47 48 50 50 51 51 52 53 54 55 56 57 58 57 57 57 57 56 56 56 57
43 43 44 44 45 43 43 43 44 45 46 47 47 47 47 47 46 46 46 47 49 50 49 50 52 52 53 54 54 55 56 57 58 59 58 57 56 56 56 55 55 55 55
41 42 43 42 41 40 41 40 41 42 43 43 44 45 46 46 46 46 47 48 49 50 49 50 52 52 53 53 55 57 57 58 58 57 57 56 55 54 54 54 53 53 53
39 40 40 39 38 36 37 38 38 37 37 38 38 39 41 43 45 46 47 47 48 50 50 52 53 55 56 57 58 58 57 57 56 56 55 54 53 53 53 52 52 51 50
36 36 34 33 34 33 32 32 33 32 33 34 35 36 38 40 41 44 45 46 48 49 51 54 55 56 56 57 57 56 55 55 54 54 53 53 52 52 52 50 49 48 47
31 32 31 30 30 30 29 29 29 30 31 33 34 36 38 40 42 44 46 48 50 51 52 53 54 55 56 56 56 55 54 54 53 52 52 52 50 49 48 47 45 44 43
26 27 27 27 27 26 27 28 29 31 32 33 34 36 38 40 42 43 46 48 49 51 52 53 53 54 54 54 54 53 53 52 51 51 50 48 47 45 43 41 40 38 37
22 22 22 23 23 23 25 27 28 30 32 33 34 36 37 39 40 42 44 45 47 48 50 51 51 51 51 51 51 50 49 48 47 46 44 42 41 39 36 34 33 31 29
17 17 18 19 21 22 24 25 27 29 30 32 33 35 36 38 39 41 43 44 45 46 47 47 47 47 46 46 45 45 44 44 42 41 38 35 33 30 28 26 24 22 21
15 15 16 18 19 20 22 23 25 26 27 29 30 32 34 36 38 40 41 42 43 43 43 43 42 41 40 40 40 39 38 36 34 31 28 25 23 21 19 17 15 14 13
13 14 15 17 18 19 20 21 22 23 24 26 28 30 32 34 35 36 37 37 37 37 37 37 36 35 34 33 32 30 27 23 20 18 16 15 13 11 10 8 8 8 8
12 13 14 15 16 17 18 19 19 21 23 24 26 27 29 30 32 32 32 32 31 31 30 29 28 27 26 24 21 17 14 12 10 8 6 5 4 3 2 2 3 4 6
12 13 13 14 15 15 16 16 17 19 21 22 23 25 26 28 28 27 27 26 25 24 23 22 20 19 16 14 11 8 5 3 1 2 3 3 4 4 3 3 4 5 7
12 12 13 13 13 14 14 15 16 18 19 20 21 23 24 25 25 24 23 22 20 19 17 16 14 12 9 7 5 4 5 6 7 8 8 8 9 8 8 7 7 8 9
Wind_Direction
227 227 229 229 230 229 233 239 241 247 252 252 256 262 267 265 267 267 269 275 277 279 282 283 282 281 281 281 281 284 285 285 286 286 285 285 286 289 290 290 290 290 291
229 228 229 231 234 237 243 244 246 250 255 259 261 264 269 269 271 270 272 277 279 281 283 285 281 278 278 279 281 283 281 281 282 283 283 281 282 284 285 286 288 290 291
228 227 228 231 232 235 239 241 250 256 257 262 266 277 275 274 277 278 276 278 281 284 285 285 283 279 280 281 281 282 281 281 280 280 280 280 280 282 283 285 287 288 289
227 228 231 232 235 239 242 248 254 260 264 268 271 275 274 274 277 278 280 284 284 282 284 284 285 282 282 281 282 281 284 284 281 280 280 280 281 282 283 285 286 288 289
230 231 233 237 238 241 246 251 256 261 264 269 272 274 280 279 279 281 284 286 287 287 288 286 285 282 283 283 283 281 283 283 282 281 281 281 282 283 284 286 287 288 289
230 231 235 240 242 244 248 255 258 264 268 271 274 277 278 281 282 283 286 289 290 290 288 289 285 284 284 284 280 281 282 283 282 282 282 283 284 286 287 288 288 289 290
231 235 237 240 244 248 252 256 260 266 269 273 276 277 278 283 286 290 294 293 291 291 290 289 287 285 285 282 280 281 281 281 282 284 285 286 287 288 289 289 290 291 292
237 240 242 245 249 254 257 259 262 266 269 272 274 279 282 284 288 292 294 295 294 292 288 289 287 285 283 280 282 283 283 283 284 285 286 287 289 290 291 291 292 292 292
243 247 249 252 254 256 259 262 264 266 269 273 276 279 280 283 288 292 294 293 292 291 288 287 285 283 282 282 283 284 284 284 285 287 288 290 291 292 292 293 293 293 293
248 251 254 256 258 260 262 263 266 269 271 273 276 278 281 283 288 290 291 290 290 287 286 285 283 284 283 283 283 284 285 286 286 287 288 290 291 292 293 294 294 294 294
253 256 259 261 263 264 264 265 265 267 269 271 274 277 280 282 284 286 287 286 286 286 285 284 284 285 285 284 284 285 287 287 287 287 289 291 293 293 294 294 294 294 294
257 260 263 265 265 266 267 267 266 267 268 270 273 276 278 280 282 283 284 284 283 284 284 284 285 286 286 285 285 285 287 287 287 287 289 290 292 292 292 293 293 294 294
260 262 264 266 267 268 269 269 268 268 269 269 270 273 276 277 279 281 281 280 282 283 283 285 284 284 284 285 285 285 286 287 287 287 288 289 290 291 291 292 293 294 295
265 267 268 270 271 271 272 272 271 271 271 270 271 272 275 276 277 279 279 279 281 281 280 282 281 281 281 282 283 283 284 285 285 285 287 288 289 289 290 292 293 294 295
270 270 273 274 275 275 274 275 275 274 273 273 274 274 276 276 276 278 278 280 281 280 279 278 279 280 281 281 281 282 283 283 283 285 286 287 288 289 290 291 292 294 295
273 274 278 279 279 281 278 277 278 277 277 276 277 277 277 277 277 279 279 280 279 277 277 278 279 281 282 283 282 283 283 284 285 285 286 287 287 287 288 289 291 292 294
276 278 279 279 280 282 280 278 277 274 273 275 275 275 277 278 278 279 279 278 277 276 278 280 282 283 284 284 284 284 284 284 285 285 285 285 286 287 288 289 291 292 294
277 277 278 278 280 280 278 276 276 276 276 276 275 276 276 277 278 278 278 277 277 279 280 282 282 283 283 284 284 284 284 285 284 284 284 285 285 287 288 290 291 293 295
274 274 273 272 274 276 276 277 279 280 279 279 280 280 280 281 282 282 283 283 283 283 284 285 285 285 286 285 285 284 283 284 284 284 285 285 286 287 289 290 291 293 295
274 274 274 273 274 276 277 279 281 282 283 284 285 286 287 288 288 288 288 287 287 287 287 287 286 286 286 285 285 285 285 285 285 286 286 286 286 287 287 288 290 293 296
276 277 277 277 279 282 283 284 285 287 289 291 291 292 292 293 292 292 291 290 290 290 289 289 289 289 289 288 288 287 287 287 287 286 285 285 284 285 286 288 291 293 297
278 280 283 285 287 289 290 291 292 294 295 296 297 298 299 299 299 297 296 294 293 293 293 292 292 292 292 292 291 290 289 288 286 285 283 282 282 284 285 288 291 295 301
287 290 292 293 295 297 298 298 300 301 303 305 306 305 305 305 305 303 302 301 299 298 296 296 296 297 296 296 296 295 293 290 288 286 284 282 280 278 280 286 295 305 315
298 299 300 301 304 304 305 306 307 308 309 311 312 313 313 313 313 312 310 308 306 305 304 303 303 303 303 303 302 300 298 295 293 289 284 277 264 259 274 305 324 340 350
310 311 312 312 312 312 312 313 313 315 316 318 320 322 323 323 323 322 321 319 317 316 315 315 315 315 315 314 316 318 323 335 19 89 113 120 114 106 96 74 49 29 16
320 319 317 316 318 318 317 318 321 322 324 325 327 329 330 331 333 334 333 332 330 330 332 334 336 340 345 354 16 45 67 84 94 101 105 107 106 100 89 75 57 41 26
Height
5855 5858 5861 5863 5864 5866 5868 5870 5872 5873 5873 5874 5875 5874 5873 5872 5871 5871 5870 5870 5868 5867 5866 5866 5864 5863 5862 5861 5861 5860 5858 5857 5856 5855 5853 5852 5850 5849 5847 5845 5843 5842 5840
5851 5854 5857 5859 5860 5862 5864 5866 5868 5869 5869 5869 5869 5869 5867 5865 5865 5865 5865 5864 5862 5861 5860 5859 5857 5856 5856 5855 5854 5853 5852 5851 5850 5849 5847 5846 5845 5843 5841 5839 5837 5835 5833
5846 5849 5852 5854 5856 5858 5860 5862 5863 5863 5864 5864 5864 5862 5861 5860 5860 5859 5859 5858 5856 5855 5853 5852 5850 5849 5849 5848 5848 5847 5845 5845 5844 5842 5841 5839 5838 5836 5834 5832 5830 5827 5825
5841 5844 5847 5849 5851 5853 5855 5856 5857 5858 5858 5858 5858 5857 5856 5855 5854 5852 5851 5850 5849 5847 5846 5845 5843 5843 5842 5841 5841 5840 5839 5838 5836 5835 5833 5832 5830 5828 5826 5824 5821 5819 5816
5836 5839 5842 5844 5846 5848 5850 5851 5851 5852 5852 5852 5851 5850 5849 5848 5847 5845 5844 5843 5842 5840 5839 5838 5837 5836 5835 5834 5833 5832 5831 5830 5829 5827 5825 5823 5821 5819 5817 5815 5812 5809 5806
5831 5834 5836 5839 5840 5842 5843 5844 5845 5845 5845 5844 5843 5842 5841 5840 5838 5836 5834 5834 5833 5832 5832 5830 5829 5828 5827 5827 5826 5824 5823 5822 5820 5819 5817 5815 5813 5810 5807 5805 5801 5798 5795
5826 5828 5830 5832 5834 5835 5836 5837 5837 5837 5837 5837 5836 5835 5833 5832 5830 5828 5826 5825 5824 5824 5823 5822 5821 5820 5819 5818 5817 5816 5815 5813 5811 5810 5808 5806 5803 5800 5797 5794 5791 5787 5784
5820 5822 5824 5825 5827 5828 5828 5829 5829 5829 5829 5829 5828 5827 5825 5822 5821 5820 5818 5817 5816 5815 5814 5814 5813 5812 5811 5810 5809 5807 5806 5804 5802 5800 5797 5795 5792 5789 5786 5783 5779 5775 5771
5814 5816 5817 5818 5819 5820 5821 5821 5820 5821 5820 5819 5818 5818 5815 5813 5812 5811 5809 5808 5808 5807 5807 5806 5805 5803 5802 5801 5799 5797 5795 5794 5791 5789 5786 5784 5781 5778 5774 5770 5767 5763 5758
5807 5809 5810 5811 5812 5812 5813 5812 5812 5811 5810 5810 5809 5808 5807 5805 5804 5803 5802 5800 5799 5799 5798 5796 5795 5793 5792 5790 5789 5787 5785 5783 5780 5777 5775 5772 5768 5765 5761 5757 5753 5749 5744
5799 5800 5801 5802 5803 5803 5803 5803 5803 5802 5802 5801 5800 5799 5798 5796 5795 5794 5793 5791 5790 5789 5788 5786 5784 5783 5781 5779 5777 5775 5773 5770 5768 5765 5762 5758 5755 5751 5747 5743 5739 5734 5729
5790 5791 5792 5793 5793 5793 5793 5793 5793 5792 5792 5791 5791 5790 5789 5787 5785 5784 5783 5781 5780 5778 5777 5775 5773 5771 5769 5767 5765 5762 5759 5757 5754 5751 5748 5744 5740 5737 5732 5728 5724 5719 5714
5781 5782 5782 5783 5783 5783 5783 5782 5782 5782 5781 5781 5780 5780 5779 5777 5775 5774 5772 5770 5768 5767 5765 5763 5761 5758 5756 5754 5751 5749 5746 5743 5740 5737 5733 5729 5726 5722 5718 5714 5709 5704 5699
5772 5772 5773 5773 5773 5773 5772 5772 5771 5771 5771 5770 5769 5768 5767 5766 5764 5763 5761 5759 5757 5755 5753 5750 5748 5745 5742 5739 5737 5734 5731 5728 5725 5722 5718 5714 5711 5707 5704 5699 5695 5690 5685
5763 5763 5763 5763 5763 5762 5762 5761 5760 5760 5760 5759 5757 5756 5755 5754 5752 5751 5749 5747 5745 5743 5740 5737 5735 5732 5729 5726 5723 5720 5717 5714 5710 5707 5703 5700 5696 5693 5689 5685 5681 5677 5672
5754 5754 5754 5753 5753 5752 5751 5751 5750 5749 5748 5747 5746 5745 5743 5742 5740 5738 5736 5734 5732 5729 5727 5723 5721 5718 5715 5712 5708 5705 5702 5699 5695 5692 5688 5685 5682 5679 5675 5672 5668 5664 5660
5745 5745 5745 5745 5744 5743 5742 5741 5740 5739 5738 5737 5736 5734 5732 5731 5729 5727 5724 5722 5719 5716 5713 5710 5707 5704 5700 5697 5694 5690 5687 5684 5681 5677 5674 5671 5668 5665 5662 5658 5655 5652 5648
5737 5737 5737 5736 5735 5734 5733 5732 5732 5730 5729 5728 5726 5724 5722 5720 5718 5716 5713 5709 5706 5702 5699 5695 5692 5688 5685 5681 5678 5675 5672 5669 5666 5663 5660 5657 5654 5652 5649 5646 5643 5640 5637
5729 5729 5728 5728 5727 5727 5726 5725 5723 5722 5720 5719 5716 5714 5712 5709 5706 5703 5700 5696 5693 5689 5685 5681 5677 5673 5670 5666 5662 5659 5656 5653 5651 5649 5646 5643 5641 5639 5637 5635 5632 5630 5627
5722 5722 5721 5721 5720 5719 5718 5717 5715 5713 5711 5709 5706 5704 5701 5698 5695 5691 5687 5683 5679 5675 5671 5667 5662 5658 5655 5651 5648 5644 5641 5639 5637 5634 5633 5631 5629 5628 5626 5625 5623 5621 5619
5716 5716 5715 5715 5714 5713 5711 5710 5708 5705 5703 5700 5697 5694 5691 5687 5684 5680 5675 5671 5666 5661 5657 5653 5648 5644 5641 5637 5634 5631 5628 5625 5624 5622 5621 5620 5619 5618 5618 5617 5616 5615 5613
5712 5711 5710 5709 5708 5706 5705 5703 5700 5698 5695 5692 5689 5685 5682 5678 5673 5668 5664 5659 5654 5649 5644 5640 5636 5632 5628 5625 5621 5618 5616 5613 5612 5611 5611 5611 5611 5611 5611 5611 5611 5610 5609
5708 5707 5705 5704 5702 5700 5698 5696 5694 5691 5688 5685 5681 5677 5673 5668 5663 5658 5653 5648 5643 5638 5633 5629 5625 5622 5618 5615 5611 5608 5606 5604 5604 5604 5604 5605 5606 5607 5607 5608 5608 5608 5607
5704 5703 5701 5699 5697 5695 5693 5690 5688 5685 5682 5679 5675 5670 5665 5660 5655 5649 5644 5639 5634 5629 5625 5621 5617 5614 5611 5608 5605 5602 5601 5600 5600 5600 5601 5602 5603 5604 5605 5606 5606 5606 5605
5701 5699 5697 5695 5693 5690 5688 5686 5683 5680 5677 5673 5669 5665 5660 5654 5649 5643 5638 5632 5627 5623 5619 5615 5612 5608 5606 5603 5601 5600 5599 5599 5599 5600 5601 5602 5603 5604 5605 5606 5606 5606 5605
5697 5695 5693 5691 5689 5687 5684 5682 5679 5676 5673 5669 5665 5661 5656 5651 5645 5639 5634 5629 5624 5620 5616 5612 5609 5606 5604 5602 5601 5600 5600 5600 5601 5602 5602 5604 5605 5606 5607 5607 5607 5606 5605